| time (UTC) | temp F | wind direction | speed knots | gust knots | rain 1hr in | rain 24hr in | rain mn in | humidity % | barometer mb |
| 20260504200352 | 62 | 245 | 0.0 | 2.6 | 0.00 | 0.14 | 0.07 | 96 | 1016.0 |
| 20260504195340 | 63 | 255 | 0.0 | 1.7 | 0.00 | 0.13 | 0.06 | 96 | 1015.9 |
| 20260504194317 | 64 | 244 | 0.0 | 0.0 | 0.00 | 0.13 | 0.06 | 97 | 1016.0 |
| 20260504193306 | 64 | 337 | 0.0 | 0.0 | 0.00 | 0.13 | 0.06 | 97 | 1015.7 |
| 20260504192306 | 64 | 337 | 0.0 | 1.7 | 0.00 | 0.13 | 0.06 | 97 | 1015.5 |
| 20260504191259 | 64 | 266 | 0.0 | 0.9 | 0.00 | 0.13 | 0.06 | 97 | 1015.4 |
| 20260504190324 | 64 | 269 | 0.0 | 3.5 | 0.00 | 0.13 | 0.06 | 97 | 1015.3 |
| 20260504185317 | 64 | 283 | 0.0 | 0.0 | 0.00 | 0.13 | 0.06 | 97 | 1015.3 |
| 20260504182037 | 65 | 306 | 0.0 | 1.7 | 0.00 | 0.13 | 0.06 | 97 | 1015.2 |
| 20260504181015 | 65 | 287 | 0.9 | 4.3 | 0.00 | 0.13 | 0.06 | 97 | 1015.1 |
| 20260504175949 | 65 | 335 | 1.7 | 5.2 | 0.00 | 0.13 | 0.06 | 97 | 1015.2 |
| 20260504174915 | 65 | 298 | 1.7 | 6.1 | 0.00 | 0.13 | 0.06 | 96 | 1015.1 |
| 20260504173851 | 65 | 321 | 1.7 | 6.1 | 0.00 | 0.13 | 0.06 | 96 | 1015.0 |
| 20260504172820 | 65 | 309 | 1.7 | 7.8 | 0.00 | 0.13 | 0.06 | 96 | 1014.8 |
| 20260504171824 | 65 | 333 | 2.6 | 7.8 | 0.00 | 0.13 | 0.06 | 96 | 1015.1 |
| 20260504170839 | 65 | 328 | 2.6 | 6.1 | 0.00 | 0.13 | 0.06 | 96 | 1015.2 |
| 20260504150251 | 65 | 310 | 0.9 | 3.5 | 0.00 | 0.07 | 0.00 | 96 | 1015.0 |
| 20260504140953 | 66 | 0 | 0.9 | 3.5 | 0.00 | 0.07 | 0.00 | 96 | 1014.5 |
| 20260504110546 | 67 | 319 | 0.0 | 1.7 | 0.00 | 0.04 | 0.04 | 91 | 1015.7 |
| 20260504081607 | 73 | 300 | 0.0 | 3.5 | 0.00 | 0.00 | 0.00 | 74 | 1014.8 |
| 20260504080600 | 74 | 312 | 0.0 | 2.6 | 0.00 | 0.00 | 0.00 | 73 | 1014.8 |
| 20260504045905 | 75 | 89 | 0.0 | 1.7 | 0.00 | 0.00 | 0.00 | 83 | 1014.0 |
| 20260504043719 | 75 | 74 | 0.9 | 2.6 | 0.00 | 0.00 | 0.00 | 82 | 1014.1 |
| 20260504042647 | 75 | 150 | 0.9 | 2.6 | 0.00 | 0.00 | 0.00 | 82 | 1014.2 |
| 20260504041636 | 75 | 144 | 0.9 | 2.6 | 0.00 | 0.00 | 0.00 | 82 | 1014.2 |
| 20260504040631 | 74 | 129 | 0.9 | 2.6 | 0.00 | 0.00 | 0.00 | 82 | 1014.3 |
| 20260504035600 | 74 | 165 | 0.9 | 3.5 | 0.00 | 0.00 | 0.00 | 81 | 1014.5 |
| 20260504034602 | 74 | 157 | 1.7 | 3.5 | 0.00 | 0.00 | 0.00 | 81 | 1014.6 |
| 20260504033613 | 75 | 165 | 1.7 | 3.5 | 0.00 | 0.00 | 0.00 | 82 | 1014.5 |
| 20260504032552 | 75 | 142 | 1.7 | 3.5 | 0.00 | 0.00 | 0.00 | 82 | 1014.7 |
| 20260504030407 | 75 | 164 | 1.7 | 4.3 | 0.00 | 0.00 | 0.00 | 81 | 1014.9 |
| 20260504025336 | 75 | 96 | 0.9 | 4.3 | 0.00 | 0.00 | 0.00 | 79 | 1015.0 |
| 20260504024357 | 76 | 39 | 1.7 | 4.3 | 0.00 | 0.00 | 0.00 | 78 | 1015.1 |
| 20260504023334 | 76 | 69 | 0.9 | 4.3 | 0.00 | 0.00 | 0.00 | 78 | 1015.2 |
| 20260504021247 | 76 | 139 | 1.7 | 5.2 | 0.00 | 0.00 | 0.00 | 75 | 1015.6 |
| 20260504020303 | 75 | 91 | 0.9 | 4.3 | 0.00 | 0.00 | 0.00 | 75 | 1015.8 |
| 20260504015311 | 76 | 79 | 1.7 | 4.3 | 0.00 | 0.00 | 0.00 | 76 | 1016.1 |
| 20260504014323 | 76 | 86 | 1.7 | 4.3 | 0.00 | 0.00 | 0.00 | 76 | 1016.2 |
| 20260504013347 | 77 | 101 | 1.7 | 4.3 | 0.00 | 0.00 | 0.00 | 73 | 1016.4 |
| 20260504012338 | 77 | 122 | 0.9 | 4.3 | 0.00 | 0.00 | 0.00 | 72 | 1016.4 |
| 20260504011309 | 77 | 68 | 0.9 | 7.0 | 0.00 | 0.00 | 0.00 | 70 | 1016.5 |
| 20260504010250 | 77 | 49 | 1.7 | 7.0 | 0.00 | 0.00 | 0.00 | 67 | 1016.6 |
| 20260504005227 | 77 | 8 | 1.7 | 6.1 | 0.00 | 0.00 | 0.00 | 65 | 1016.7 |
| 20260504004226 | 76 | 324 | 1.7 | 5.2 | 0.00 | 0.00 | 0.00 | 69 | 1016.8 |
| 20260504003218 | 75 | 56 | 2.6 | 5.2 | 0.00 | 0.00 | 0.00 | 71 | 1016.8 |
| 20260504001109 | 76 | 328 | 0.9 | 4.3 | 0.00 | 0.00 | 0.00 | 71 | 1016.9 |
| 20260504000045 | 75 | 319 | 1.7 | 4.3 | 0.00 | 0.00 | 0.00 | 73 | 1016.9 |
| 20260503235109 | 74 | 48 | 1.7 | 4.3 | 0.00 | 0.00 | 0.00 | 76 | 1017.0 |
| 20260503234055 | 74 | 41 | 0.9 | 5.2 | 0.00 | 0.00 | 0.00 | 77 | 1017.0 |
| 20260503233024 | 73 | 49 | 0.9 | 7.0 | 0.00 | 0.00 | 0.00 | 78 | 1017.0 |
| 20260503232006 | 72 | 348 | 0.9 | 7.0 | 0.00 | 0.00 | 0.00 | 78 | 1017.0 |
| 20260503231015 | 71 | 49 | 0.9 | 3.5 | 0.00 | 0.00 | 0.00 | 80 | 1016.9 |
| 20260503230034 | 71 | 338 | 0.9 | 3.5 | 0.00 | 0.00 | 0.00 | 82 | 1016.9 |
| 20260503225053 | 70 | 321 | 0.0 | 2.6 | 0.00 | 0.00 | 0.00 | 86 | 1016.9 |
| 20260503224038 | 69 | 329 | 0.0 | 2.6 | 0.00 | 0.00 | 0.00 | 89 | 1016.8 |
| 20260503223033 | 67 | 359 | 0.9 | 3.5 | 0.00 | 0.00 | 0.00 | 90 | 1017.0 |
| 20260503220903 | 65 | 275 | 0.0 | 2.6 | 0.00 | 0.00 | 0.00 | 92 | 1017.1 |
| 20260503215842 | 64 | 318 | 0.0 | 2.6 | 0.00 | 0.00 | 0.00 | 93 | 1017.1 |
| 20260503214835 | 63 | 317 | 0.9 | 3.5 | 0.00 | 0.00 | 0.00 | 94 | 1017.1 |
| 20260503213843 | 63 | 318 | 0.9 | 3.5 | 0.00 | 0.00 | 0.00 | 94 | 1017.0 |
| 20260503211642 | 62 | 323 | 0.0 | 2.6 | 0.00 | 0.00 | 0.00 | 94 | 1016.7 |
| 20260503210645 | 62 | 286 | 0.0 | 0.0 | 0.00 | 0.00 | 0.00 | 94 | 1016.5 |
| 20260503204531 | 62 | 327 | 0.0 | 0.9 | 0.00 | 0.00 | 0.00 | 94 | 1016.1 |
| 20260503203502 | 62 | 326 | 0.0 | 0.0 | 0.00 | 0.00 | 0.00 | 93 | 1016.1 |
| 20260503202434 | 62 | 326 | 0.0 | 0.0 | 0.00 | 0.00 | 0.00 | 93 | 1016.1 |
| 20260503201427 | 62 | 326 | 0.0 | 0.9 | 0.00 | 0.00 | 0.00 | 93 | 1016.1 |